Indianapolis, IN

9:30 PM EDT on September 22, 2019 (GMT -0400)
Indianapolis International

Weather History for KIND - May, 2019

Change the Weather History Date:

Monday, May 6, 2019

  Actual Average Record
Temperature  
Mean Temperature 63 °F 60 °F  
Max Temperature 76 °F 70 °F 89 °F (1949)
Min Temperature 49 °F 49 °F 31 °F (1968)
Degree Days  
Heating Degree Days 2 6  
Month to date heating degree days 29 42  
Since 1 July heating degree days 5280 5264  
Cooling Degree Days 0 1  
Month to date cooling degree days 1 6  
Year to date cooling degree days 2 21  
Growing Degree Days 12 (Base 50)    
Moisture  
Dew Point 49 °F    
Average Humidity 64    
Maximum Humidity 89    
Minimum Humidity 38    
Precipitation  
Precipitation 0.00 in 0.16 in 2.56 in (1876)
Month to date precipitation 0.77 0.95  
Year to date precipitation 18.25 13.30  
Snow  
Snow 0.00 in 0.00 in 0.20 in (1989)
Month to date snowfall 0.0 0.0  
Since 1 July snowfall 19.4 25.9  
Snow Depth 0.00 in    
Sea Level Pressure  
Sea Level Pressure 30.02 in    
Wind  
Wind Speed 7 mph (SW)    
Max Wind Speed 15 mph    
Max Gust Speed 20 mph    
Visibility 10 miles    
Events      
T = Trace of Precipitation, MM = Missing Value Source: NWS Daily Summary

Daily Weather History Graph

Daily Weather History Graph

Search for Another Location

Airport or City:

Astronomy

May. 06, 2019 Rise Set
Actual Time 6:40 AM EDT 8:44 PM EDT
Civil Twilight 6:10 AM EDT 9:13 PM EDT
Nautical Twilight 5:34 AM EDT 9:50 PM EDT
Astronomical Twilight 4:55 AM EDT 10:29 PM EDT
Moon 8:01 AM EDT (5/6) 10:40 PM EDT (5/6)
Length of Visible Light 15h 03m
Length of Day
14h 04m
Waxing Crescent, 3% of the Moon is Illuminated
May 6
Waxing Crescent
May 11
First Quarter
May 18
Full
May 26
Last Quarter
Jun 3
New

Hourly Weather History & Observations

Time (EDT) Temp. Dew Point Humidity Pressure Visibility Wind Dir Wind Speed Gust Speed Precip Events Conditions
12:54 AM 59.0 °F 46.0 °F 62% 29.94 in 10.0 mi South 3.5 mph - N/A   Scattered Clouds
1:54 AM 52.0 °F 46.9 °F 83% 29.96 in 10.0 mi SW 4.6 mph - N/A   Clear
2:54 AM 53.1 °F 46.9 °F 80% 29.94 in 10.0 mi SSW 3.5 mph - N/A   Clear
3:54 AM 52.0 °F 46.9 °F 83% 29.95 in 10.0 mi Calm Calm - N/A   Clear
4:54 AM 51.1 °F 46.9 °F 86% 29.98 in 10.0 mi Calm Calm - N/A   Clear
5:54 AM 50.0 °F 46.0 °F 86% 30.00 in 10.0 mi Calm Calm - N/A   Clear
6:54 AM 50.0 °F 46.0 °F 86% 30.00 in 10.0 mi SE 5.8 mph - N/A   Partly Cloudy
7:54 AM 54.0 °F 50.0 °F 86% 30.04 in 10.0 mi Calm Calm - N/A   Scattered Clouds
8:54 AM 57.9 °F 50.0 °F 75% 30.05 in 10.0 mi SW 4.6 mph - N/A   Partly Cloudy
9:54 AM 64.0 °F 50.0 °F 60% 30.05 in 10.0 mi SW 9.2 mph - N/A   Partly Cloudy
10:54 AM 68.0 °F 51.1 °F 55% 30.05 in 10.0 mi SSW 8.1 mph - N/A   Scattered Clouds
11:54 AM 70.0 °F 48.9 °F 47% 30.05 in 10.0 mi SSW 8.1 mph - N/A   Mostly Cloudy
12:54 PM 71.1 °F 48.9 °F 45% 30.05 in 10.0 mi SSW 10.4 mph - N/A   Mostly Cloudy
1:54 PM 73.0 °F 48.9 °F 42% 30.04 in 10.0 mi WSW 6.9 mph - N/A   Mostly Cloudy
2:54 PM 75.0 °F 52.0 °F 44% 30.02 in 10.0 mi SW 12.7 mph 18.4 mph N/A   Mostly Cloudy
3:54 PM 75.9 °F 50.0 °F 40% 30.01 in 10.0 mi WSW 12.7 mph 17.3 mph N/A   Mostly Cloudy
4:54 PM 75.0 °F 50.0 °F 41% 30.01 in 10.0 mi WSW 11.5 mph - N/A   Mostly Cloudy
5:54 PM 75.0 °F 48.9 °F 40% 30.01 in 10.0 mi SW 9.2 mph - N/A   Scattered Clouds
6:54 PM 73.9 °F 50.0 °F 43% 30.02 in 10.0 mi SW 8.1 mph - N/A   Scattered Clouds
7:54 PM 71.1 °F 46.9 °F 42% 30.02 in 10.0 mi SW 11.5 mph - N/A   Scattered Clouds
8:54 PM 66.9 °F 46.9 °F 49% 30.04 in 10.0 mi WSW 9.2 mph - N/A   Scattered Clouds
9:54 PM 64.0 °F 48.9 °F 58% 30.06 in 10.0 mi WSW 9.2 mph - N/A   Scattered Clouds
10:54 PM 62.1 °F 48.9 °F 62% 30.07 in 10.0 mi WSW 6.9 mph - N/A   Scattered Clouds
11:54 PM 60.1 °F 48.9 °F 67% 30.06 in 10.0 mi SSW 6.9 mph - N/A   Scattered Clouds